Location: Unspecified
(48.2082°N, 0.0000°E)
Time: 20:58:59
(UTC+00:00)

Vanguard 1 - Pass Details

Date: 01 July 2019
Orbit: 653 x 3830 km, 34.3° (Epoch: 17 July)

Event Time Altitude Azimuth Distance (km) Brightness Sun altitude
Rises 01:42:10 0° 247° (WSW) 7,969 14.3 -15.3°
Reaches altitude 10° 01:48:02 10° 242° (WSW) 6,875 13.9 -14.9°
Maximum altitude 02:08:25 49° 177° (S) 3,554 12.5 -13.4°
Drops below altitude 10° 02:21:21 10° 108° (ESE) 4,535 13.6 -12.3°
Sets 02:24:19 0° 103° (ESE) 5,186 14.0 -12.0°
